Location: Sihaung
(22.8641°N, 94.0549°E)
Time: 01:03:38
(UTC+00:00)

Delta 2 Rocket - Pass Details

Date: 03 March 2021
Orbit: 890 x 1677 km, 26.4° (Epoch: 12 April)

Event Time Altitude Azimuth Distance (km) Brightness Sun altitude
Rises 12:17:24 0° 250° (WSW) 3,826 8.9 -7.6°
Reaches altitude 10° 12:20:16 10° 249° (WSW) 2,776 7.8 -8.2°
Maximum altitude 12:26:50 79° 163° (SSE) 937 3.9 -9.7°
Enters shadow 12:32:09 14° 78° (ENE) 2,301 5.3 -10.9°
